Time,TemperatureF,DewpointF,PressureIn,WindDirection,WindDirectionDegrees,WindSpeedMPH,WindSpeedGustMPH,Humidity,HourlyPrecipIn,Conditions,Clouds,dailyrainin,SoftwareType,DateUTC
2013-07-05 00:02:00,57.0,52.9,30.03,WNW,303,0.0,3.0,86,0.00,,,0.00,meteohub,2013-07-05 07:02:00,
2013-07-05 00:07:00,56.8,53.1,30.03,West,281,0.0,3.0,87,0.00,,,0.00,meteohub,2013-07-05 07:07:00,
2013-07-05 00:12:00,56.8,53.1,30.03,NW,317,0.0,3.0,87,0.00,,,0.00,meteohub,2013-07-05 07:12:00,
2013-07-05 00:17:00,56.7,52.9,30.03,NNE,20,1.0,2.0,87,0.00,,,0.00,meteohub,2013-07-05 07:17:00,
2013-07-05 00:22:00,56.7,53.1,30.03,WNW,298,0.0,2.0,88,0.00,,,0.00,meteohub,2013-07-05 07:22:00,
2013-07-05 00:27:00,56.5,52.9,30.03,WNW,291,0.0,2.0,88,0.00,,,0.00,meteohub,2013-07-05 07:27:00,
2013-07-05 00:32:00,56.5,53.2,30.03,WNW,288,1.0,2.0,89,0.00,,,0.00,meteohub,2013-07-05 07:32:00,
2013-07-05 00:37:00,56.3,53.1,30.03,WNW,290,1.0,2.0,89,0.00,,,0.00,meteohub,2013-07-05 07:37:00,
2013-07-05 00:42:00,56.1,52.9,30.03,WNW,290,0.0,2.0,89,0.00,,,0.00,meteohub,2013-07-05 07:42:00,
2013-07-05 00:47:00,55.9,53.1,30.03,WNW,290,1.0,2.0,90,0.00,,,0.00,meteohub,2013-07-05 07:47:00,
2013-07-05 00:52:00,55.8,52.9,30.03,WNW,283,0.0,2.0,90,0.00,,,0.00,meteohub,2013-07-05 07:52:00,
2013-07-05 00:58:00,55.8,53.2,30.03,WNW,288,1.0,2.0,91,0.00,,,0.00,meteohub,2013-07-05 07:58:00,
2013-07-05 01:03:00,55.8,53.2,30.03,WNW,293,1.0,2.0,91,0.00,,,0.00,meteohub,2013-07-05 08:03:00,
2013-07-05 01:08:00,55.8,53.2,30.03,WNW,292,2.0,2.0,91,0.00,,,0.00,meteohub,2013-07-05 08:08:00,
2013-07-05 01:13:00,55.8,53.2,30.03,WNW,291,2.0,2.0,91,0.00,,,0.00,meteohub,2013-07-05 08:13:00,
2013-07-05 01:18:00,55.8,53.2,30.03,WNW,288,2.0,3.0,91,0.00,,,0.00,meteohub,2013-07-05 08:18:00,
2013-07-05 01:23:00,55.6,53.1,30.03,WNW,300,2.0,3.0,91,0.00,,,0.00,meteohub,2013-07-05 08:23:00,
2013-07-05 01:28:00,55.6,53.1,30.03,WNW,293,1.0,3.0,91,0.00,,,0.00,meteohub,2013-07-05 08:28:00,
2013-07-05 01:33:00,55.4,52.9,30.03,WNW,288,1.0,2.0,91,0.00,,,0.00,meteohub,2013-07-05 08:33:00,
2013-07-05 01:38:00,55.2,52.7,30.03,WNW,288,1.0,2.0,91,0.00,,,0.00,meteohub,2013-07-05 08:38:00,
2013-07-05 01:43:00,55.0,52.7,30.03,WNW,287,1.0,2.0,92,0.00,,,0.00,meteohub,2013-07-05 08:43:00,
2013-07-05 01:48:00,54.9,52.5,30.03,West,277,1.0,2.0,92,0.00,,,0.00,meteohub,2013-07-05 08:48:00,
2013-07-05 01:53:00,54.7,52.3,30.03,WSW,253,0.0,2.0,92,0.00,,,0.00,meteohub,2013-07-05 08:53:00,
2013-07-05 01:58:00,54.5,52.2,30.03,West,280,1.0,1.0,92,0.00,,,0.00,meteohub,2013-07-05 08:58:00,
2013-07-05 02:04:00,54.3,52.3,30.03,West,279,0.0,1.0,93,0.00,,,0.00,meteohub,2013-07-05 09:04:00,
2013-07-05 02:09:00,54.1,52.2,30.03,West,280,0.0,1.0,93,0.00,,,0.00,meteohub,2013-07-05 09:09:00,
2013-07-05 02:15:00,54.0,52.0,30.03,WNW,287,1.0,1.0,93,0.00,,,0.00,meteohub,2013-07-05 09:15:00,
2013-07-05 02:20:00,53.8,51.8,30.03,WNW,287,0.0,1.0,93,0.00,,,0.00,meteohub,2013-07-05 09:20:00,
2013-07-05 02:26:00,53.8,52.2,30.03,WNW,287,1.0,1.0,94,0.00,,,0.00,meteohub,2013-07-05 09:26:00,
2013-07-05 02:31:00,53.6,52.0,30.03,WNW,288,1.0,2.0,94,0.00,,,0.00,meteohub,2013-07-05 09:31:00,
2013-07-05 02:37:00,53.4,51.8,30.03,West,273,1.0,2.0,94,0.00,,,0.00,meteohub,2013-07-05 09:37:00,
2013-07-05 02:42:00,53.4,51.8,30.03,WNW,287,0.0,2.0,94,0.00,,,0.00,meteohub,2013-07-05 09:42:00,
2013-07-05 02:47:00,53.4,51.8,30.03,WNW,287,0.0,2.0,94,0.00,,,0.00,meteohub,2013-07-05 09:47:00,
2013-07-05 02:52:00,53.6,52.0,30.03,WNW,287,0.0,2.0,94,0.00,,,0.00,meteohub,2013-07-05 09:52:00,
2013-07-05 02:57:00,53.8,52.2,30.03,WNW,287,0.0,1.0,94,0.00,,,0.00,meteohub,2013-07-05 09:57:00,
2013-07-05 03:03:00,53.8,52.2,30.03,WNW,287,0.0,1.0,94,0.00,,,0.00,meteohub,2013-07-05 10:03:00,
2013-07-05 03:08:00,53.8,52.2,30.03,WNW,287,0.0,0.0,94,0.00,,,0.00,meteohub,2013-07-05 10:08:00,
2013-07-05 03:13:00,53.8,52.2,30.03,WNW,287,1.0,1.0,94,0.00,,,0.00,meteohub,2013-07-05 10:13:00,
2013-07-05 03:18:00,53.8,52.2,30.02,WNW,283,0.0,1.0,94,0.00,,,0.00,meteohub,2013-07-05 10:18:00,
2013-07-05 03:23:00,53.6,52.0,30.02,WNW,284,0.0,1.0,94,0.00,,,0.00,meteohub,2013-07-05 10:23:00,
2013-07-05 03:29:00,53.6,52.0,30.03,WNW,283,0.0,1.0,94,0.00,,,0.00,meteohub,2013-07-05 10:29:00,
2013-07-05 03:34:00,53.4,52.0,30.02,WNW,283,0.0,1.0,95,0.00,,,0.00,meteohub,2013-07-05 10:34:00,
2013-07-05 03:39:00,53.4,52.0,30.03,WNW,288,1.0,1.0,95,0.00,,,0.00,meteohub,2013-07-05 10:39:00,
2013-07-05 03:44:00,53.4,52.0,30.03,WNW,288,0.0,1.0,95,0.00,,,0.00,meteohub,2013-07-05 10:44:00,
2013-07-05 03:49:00,53.4,52.0,30.02,WNW,288,0.0,1.0,95,0.00,,,0.00,meteohub,2013-07-05 10:49:00,
2013-07-05 03:54:00,53.4,52.0,30.02,WNW,299,0.0,1.0,95,0.00,,,0.00,meteohub,2013-07-05 10:54:00,
2013-07-05 04:00:00,53.6,52.2,30.02,WNW,299,0.0,2.0,95,0.00,,,0.00,meteohub,2013-07-05 11:00:00,
2013-07-05 04:05:00,53.6,52.2,30.02,WNW,291,1.0,2.0,95,0.00,,,0.00,meteohub,2013-07-05 11:05:00,
2013-07-05 04:10:00,53.6,52.2,30.02,WNW,291,0.0,2.0,95,0.00,,,0.00,meteohub,2013-07-05 11:10:00,
2013-07-05 04:16:00,53.4,52.0,30.02,West,273,1.0,2.0,95,0.00,,,0.00,meteohub,2013-07-05 11:16:00,
2013-07-05 04:22:00,53.4,52.0,30.02,WNW,283,0.0,2.0,95,0.00,,,0.00,meteohub,2013-07-05 11:22:00,
2013-07-05 04:27:00,53.4,52.0,30.02,West,263,0.0,1.0,95,0.00,,,0.00,meteohub,2013-07-05 11:27:00,
2013-07-05 04:32:00,53.2,51.8,30.02,West,264,0.0,1.0,95,0.00,,,0.00,meteohub,2013-07-05 11:32:00,
2013-07-05 04:37:00,53.2,51.8,30.02,West,274,0.0,1.0,95,0.00,,,0.00,meteohub,2013-07-05 11:37:00,
2013-07-05 04:42:00,53.2,51.8,30.02,West,280,0.0,1.0,95,0.00,,,0.00,meteohub,2013-07-05 11:42:00,
2013-07-05 04:47:00,53.1,51.6,30.02,West,279,0.0,1.0,95,0.00,,,0.00,meteohub,2013-07-05 11:47:00,
2013-07-05 04:52:00,53.1,51.6,30.02,WNW,283,1.0,1.0,95,0.00,,,0.00,meteohub,2013-07-05 11:52:00,
2013-07-05 04:57:00,53.1,51.6,30.02,WNW,287,0.0,1.0,95,0.00,,,0.00,meteohub,2013-07-05 11:57:00,
2013-07-05 05:03:00,52.9,51.4,30.02,WNW,287,0.0,1.0,95,0.00,,,0.00,meteohub,2013-07-05 12:03:00,
2013-07-05 05:08:00,52.7,51.3,30.02,West,274,0.0,1.0,95,0.00,,,0.00,meteohub,2013-07-05 12:08:00,
2013-07-05 05:13:00,52.5,51.4,30.02,West,280,1.0,1.0,96,0.00,,,0.00,meteohub,2013-07-05 12:13:00,
2013-07-05 05:18:00,52.5,51.4,30.02,WNW,293,2.0,2.0,96,0.00,,,0.00,meteohub,2013-07-05 12:18:00,
2013-07-05 05:24:00,52.5,51.4,30.02,WNW,290,1.0,1.0,96,0.00,,,0.00,meteohub,2013-07-05 12:24:00,
2013-07-05 05:29:00,52.5,51.4,30.02,WNW,293,2.0,2.0,96,0.00,,,0.00,meteohub,2013-07-05 12:29:00,
2013-07-05 05:35:00,52.9,51.8,30.02,WNW,285,1.0,2.0,96,0.00,,,0.00,meteohub,2013-07-05 12:35:00,
2013-07-05 05:40:00,52.9,51.8,30.02,WNW,288,0.0,2.0,96,0.00,,,0.00,meteohub,2013-07-05 12:40:00,
2013-07-05 05:45:00,52.9,51.8,30.02,WNW,288,0.0,2.0,96,0.00,,,0.00,meteohub,2013-07-05 12:45:00,
2013-07-05 05:50:00,53.1,52.0,30.02,WNW,288,1.0,2.0,96,0.00,,,0.00,meteohub,2013-07-05 12:50:00,
2013-07-05 05:56:00,53.2,52.2,30.02,WNW,297,0.0,1.0,96,0.00,,,0.00,meteohub,2013-07-05 12:56:00,
2013-07-05 06:02:00,53.2,52.2,30.02,WNW,283,0.0,1.0,96,0.00,,,0.00,meteohub,2013-07-05 13:02:00,
2013-07-05 06:07:00,53.2,52.2,30.02,WNW,284,0.0,1.0,96,0.00,,,0.00,meteohub,2013-07-05 13:07:00,
2013-07-05 06:12:00,53.4,52.3,30.02,WNW,283,0.0,1.0,96,0.00,,,0.00,meteohub,2013-07-05 13:12:00,
2013-07-05 06:17:00,53.4,52.3,30.02,WNW,283,0.0,1.0,96,0.00,,,0.00,meteohub,2013-07-05 13:17:00,
2013-07-05 06:22:00,53.4,52.3,30.02,WNW,283,0.0,1.0,96,0.00,,,0.00,meteohub,2013-07-05 13:22:00,
2013-07-05 06:27:00,53.6,52.5,30.02,WNW,283,0.0,0.0,96,0.00,,,0.00,meteohub,2013-07-05 13:27:00,
2013-07-05 06:32:00,53.8,52.7,30.02,WSW,242,1.0,0.0,96,0.00,,,0.00,meteohub,2013-07-05 13:32:00,
2013-07-05 06:37:00,54.3,53.2,30.02,West,271,1.0,2.0,96,0.00,,,0.00,meteohub,2013-07-05 13:37:00,
2013-07-05 06:42:00,54.9,53.8,30.02,West,276,0.0,2.0,96,0.00,,,0.00,meteohub,2013-07-05 13:42:00,
2013-07-05 06:47:00,55.4,54.0,30.02,WSW,250,0.0,2.0,95,0.00,,,0.00,meteohub,2013-07-05 13:47:00,
2013-07-05 06:52:00,55.6,54.0,30.02,WNW,293,0.0,1.0,94,0.00,,,0.00,meteohub,2013-07-05 13:52:00,
2013-07-05 06:58:00,55.8,54.3,30.03,WSW,239,0.0,2.0,95,0.00,,,0.00,meteohub,2013-07-05 13:58:00,
2013-07-05 07:03:00,55.9,54.3,30.03,West,259,0.0,2.0,94,0.00,,,0.00,meteohub,2013-07-05 14:03:00,
2013-07-05 07:08:00,56.1,54.5,30.03,WSW,245,0.0,2.0,94,0.00,,,0.00,meteohub,2013-07-05 14:08:00,
2013-07-05 07:13:00,56.1,54.5,30.02,West,281,0.0,1.0,94,0.00,,,0.00,meteohub,2013-07-05 14:13:00,
2013-07-05 07:18:00,56.3,54.7,30.02,West,278,0.0,1.0,94,0.00,,,0.00,meteohub,2013-07-05 14:18:00,
2013-07-05 07:23:00,56.7,54.7,30.03,West,274,0.0,2.0,93,0.00,,,0.00,meteohub,2013-07-05 14:23:00,
2013-07-05 07:29:00,56.7,54.7,30.03,WNW,303,0.0,2.0,93,0.00,,,0.00,meteohub,2013-07-05 14:29:00,
2013-07-05 07:34:00,57.0,55.0,30.03,WNW,303,0.0,2.0,93,0.00,,,0.00,meteohub,2013-07-05 14:34:00,
2013-07-05 07:39:00,57.4,55.0,30.03,WNW,301,0.0,1.0,92,0.00,,,0.00,meteohub,2013-07-05 14:39:00,
2013-07-05 07:45:00,57.6,55.2,30.03,WSW,238,0.0,1.0,92,0.00,,,0.00,meteohub,2013-07-05 14:45:00,
2013-07-05 07:50:00,57.9,55.6,30.03,WSW,238,0.0,1.0,92,0.00,,,0.00,meteohub,2013-07-05 14:50:00,
2013-07-05 07:55:00,58.5,55.8,30.03,SW,219,0.0,1.0,91,0.00,,,0.00,meteohub,2013-07-05 14:55:00,
2013-07-05 08:00:00,59.4,56.1,30.03,SW,219,0.0,1.0,89,0.00,,,0.00,meteohub,2013-07-05 15:00:00,
2013-07-05 08:05:00,60.1,56.5,30.03,SW,215,0.0,1.0,88,0.00,,,0.00,meteohub,2013-07-05 15:05:00,
2013-07-05 08:11:00,60.3,56.1,30.03,West,281,0.0,1.0,86,0.00,,,0.00,meteohub,2013-07-05 15:11:00,
2013-07-05 08:16:00,60.6,56.1,30.03,South,169,0.0,1.0,85,0.00,,,0.00,meteohub,2013-07-05 15:16:00,
2013-07-05 08:21:00,61.3,56.8,30.03,WSW,242,0.0,1.0,85,0.00,,,0.00,meteohub,2013-07-05 15:21:00,
2013-07-05 08:27:00,62.1,56.8,30.03,SSE,152,0.0,1.0,83,0.00,,,0.00,meteohub,2013-07-05 15:27:00,
2013-07-05 08:32:00,63.0,57.0,30.03,SSE,167,1.0,1.0,81,0.00,,,0.00,meteohub,2013-07-05 15:32:00,
2013-07-05 08:37:00,62.2,55.9,30.03,ESE,103,4.0,4.0,80,0.00,,,0.00,meteohub,2013-07-05 15:37:00,
2013-07-05 08:42:00,60.6,55.4,30.03,ESE,122,3.0,5.0,83,0.00,,,0.00,meteohub,2013-07-05 15:42:00,
2013-07-05 08:47:00,59.5,55.6,30.03,SE,129,1.0,5.0,87,0.00,,,0.00,meteohub,2013-07-05 15:47:00,
2013-07-05 08:51:00,59.7,55.8,30.03,ENE,58,2.0,5.0,87,0.00,,,0.00,meteohub,2013-07-05 15:51:00,
2013-07-05 08:56:00,60.3,56.3,30.03,East,80,3.0,6.0,87,0.00,,,0.00,meteohub,2013-07-05 15:56:00,
2013-07-05 09:01:00,60.1,55.9,30.02,East,94,2.0,6.0,86,0.00,,,0.00,meteohub,2013-07-05 16:01:00,
2013-07-05 09:06:00,60.4,55.9,30.02,East,91,3.0,6.0,85,0.00,,,0.00,meteohub,2013-07-05 16:06:00,
2013-07-05 09:11:00,60.6,56.5,30.02,ENE,78,2.0,5.0,86,0.00,,,0.00,meteohub,2013-07-05 16:11:00,
2013-07-05 09:16:00,61.3,56.5,30.02,SE,129,2.0,5.0,84,0.00,,,0.00,meteohub,2013-07-05 16:16:00,
2013-07-05 09:21:00,61.5,56.7,30.02,East,82,3.0,5.0,84,0.00,,,0.00,meteohub,2013-07-05 16:21:00,
2013-07-05 09:26:00,61.7,56.1,30.02,East,82,4.0,6.0,82,0.00,,,0.00,meteohub,2013-07-05 16:26:00,
2013-07-05 09:31:00,61.9,57.0,30.02,ESE,107,4.0,7.0,84,0.00,,,0.00,meteohub,2013-07-05 16:31:00,
2013-07-05 09:36:00,62.2,56.3,30.02,East,79,1.0,7.0,81,0.00,,,0.00,meteohub,2013-07-05 16:36:00,
2013-07-05 09:41:00,62.1,56.8,30.02,East,79,4.0,7.0,83,0.00,,,0.00,meteohub,2013-07-05 16:41:00,
2013-07-05 09:46:00,62.4,57.6,30.02,East,92,3.0,7.0,84,0.00,,,0.00,meteohub,2013-07-05 16:46:00,
2013-07-05 09:51:00,63.1,57.2,30.02,ENE,68,6.0,7.0,81,0.00,,,0.00,meteohub,2013-07-05 16:51:00,
2013-07-05 09:56:00,63.0,57.0,30.02,East,80,2.0,6.0,81,0.00,,,0.00,meteohub,2013-07-05 16:56:00,
2013-07-05 10:01:00,63.5,56.8,30.02,ESE,122,4.0,6.0,79,0.00,,,0.00,meteohub,2013-07-05 17:01:00,
2013-07-05 10:06:00,62.4,56.8,30.02,East,92,7.0,8.0,82,0.00,,,0.00,meteohub,2013-07-05 17:06:00,
2013-07-05 10:11:00,62.1,57.2,30.02,East,91,7.0,8.0,84,0.00,,,0.00,meteohub,2013-07-05 17:11:00,
2013-07-05 10:16:00,62.1,57.2,30.02,East,94,4.0,8.0,84,0.00,,,0.00,meteohub,2013-07-05 17:16:00,
2013-07-05 10:21:00,62.6,57.4,30.02,East,85,7.0,9.0,83,0.00,,,0.00,meteohub,2013-07-05 17:21:00,
2013-07-05 10:27:00,62.2,57.4,30.02,East,84,9.0,9.0,84,0.00,,,0.00,meteohub,2013-07-05 17:27:00,
2013-07-05 10:32:00,62.4,57.6,30.02,East,94,8.0,9.0,84,0.00,,,0.00,meteohub,2013-07-05 17:32:00,
2013-07-05 10:37:00,62.1,57.2,30.01,East,86,8.0,9.0,84,0.00,,,0.00,meteohub,2013-07-05 17:37:00,
2013-07-05 10:42:00,61.9,57.6,30.01,East,79,6.0,10.0,86,0.00,,,0.00,meteohub,2013-07-05 17:42:00,
2013-07-05 10:47:00,62.2,57.4,30.01,East,88,6.0,10.0,84,0.00,,,0.00,meteohub,2013-07-05 17:47:00,
2013-07-05 10:52:00,62.4,57.2,30.01,East,90,6.0,10.0,83,0.00,,,0.00,meteohub,2013-07-05 17:52:00,
2013-07-05 10:57:00,62.4,57.9,30.01,East,98,9.0,9.0,85,0.00,,,0.00,meteohub,2013-07-05 17:57:00,
2013-07-05 11:02:00,63.9,58.6,30.01,ENE,69,3.0,10.0,83,0.00,,,0.00,meteohub,2013-07-05 18:02:00,
2013-07-05 11:07:00,63.9,58.3,30.01,ENE,64,5.0,10.0,82,0.00,,,0.00,meteohub,2013-07-05 18:07:00,
2013-07-05 11:12:00,64.8,58.8,30.01,East,84,6.0,10.0,81,0.00,,,0.00,meteohub,2013-07-05 18:12:00,
2013-07-05 11:17:00,64.9,58.6,30.01,ENE,63,3.0,7.0,80,0.00,,,0.00,meteohub,2013-07-05 18:17:00,
2013-07-05 11:22:00,65.7,59.4,30.01,ENE,63,7.0,8.0,80,0.00,,,0.00,meteohub,2013-07-05 18:22:00,
2013-07-05 11:27:00,66.0,59.4,30.01,ENE,76,5.0,8.0,79,0.00,,,0.00,meteohub,2013-07-05 18:27:00,
2013-07-05 11:32:00,65.7,59.0,30.01,ENE,60,5.0,8.0,79,0.00,,,0.00,meteohub,2013-07-05 18:32:00,
2013-07-05 11:37:00,64.2,58.3,30.01,East,98,6.0,8.0,81,0.00,,,0.00,meteohub,2013-07-05 18:37:00,
2013-07-05 11:42:00,63.9,58.6,30.01,East,80,5.0,8.0,83,0.00,,,0.00,meteohub,2013-07-05 18:42:00,
2013-07-05 11:47:00,63.5,58.6,30.01,ENE,72,5.0,8.0,84,0.00,,,0.00,meteohub,2013-07-05 18:47:00,
2013-07-05 11:52:00,63.7,58.8,30.01,East,86,8.0,8.0,84,0.00,,,0.00,meteohub,2013-07-05 18:52:00,
2013-07-05 11:57:00,63.5,57.9,30.01,ENE,67,8.0,9.0,82,0.00,,,0.00,meteohub,2013-07-05 18:57:00,
2013-07-05 12:03:00,64.0,58.5,30.01,East,82,6.0,10.0,82,0.00,,,0.00,meteohub,2013-07-05 19:03:00,
2013-07-05 12:08:00,63.7,57.7,30.01,East,84,9.0,10.0,81,0.00,,,0.00,meteohub,2013-07-05 19:08:00,
2013-07-05 12:13:00,63.7,58.1,30.01,East,79,8.0,10.0,82,0.00,,,0.00,meteohub,2013-07-05 19:13:00,
2013-07-05 12:18:00,64.2,59.0,30.01,ENE,75,3.0,9.0,83,0.00,,,0.00,meteohub,2013-07-05 19:18:00,
2013-07-05 12:23:00,65.5,59.2,30.01,East,81,7.0,9.0,80,0.00,,,0.00,meteohub,2013-07-05 19:23:00,
2013-07-05 12:28:00,64.2,58.3,30.01,East,98,7.0,9.0,81,0.00,,,0.00,meteohub,2013-07-05 19:28:00,
2013-07-05 12:33:00,64.2,57.6,30.01,ENE,77,8.0,10.0,79,0.00,,,0.00,meteohub,2013-07-05 19:33:00,
2013-07-05 12:38:00,64.9,59.0,30.01,East,94,5.0,10.0,81,0.00,,,0.00,meteohub,2013-07-05 19:38:00,
2013-07-05 12:43:00,65.5,58.8,30.01,East,96,7.0,10.0,79,0.00,,,0.00,meteohub,2013-07-05 19:43:00,
2013-07-05 12:48:00,65.3,58.3,30.01,ENE,70,6.0,10.0,78,0.00,,,0.00,meteohub,2013-07-05 19:48:00,
2013-07-05 12:53:00,65.7,59.0,30.01,ENE,70,6.0,9.0,79,0.00,,,0.00,meteohub,2013-07-05 19:53:00,
2013-07-05 12:58:00,65.8,58.8,30.01,East,84,7.0,9.0,78,0.00,,,0.00,meteohub,2013-07-05 19:58:00,
2013-07-05 13:03:00,64.8,57.4,30.01,East,84,8.0,9.0,77,0.00,,,0.00,meteohub,2013-07-05 20:03:00,
2013-07-05 13:08:00,64.8,58.1,30.01,East,84,6.0,9.0,79,0.00,,,0.00,meteohub,2013-07-05 20:08:00,
2013-07-05 13:13:00,64.6,57.9,30.01,East,94,5.0,9.0,79,0.00,,,0.00,meteohub,2013-07-05 20:13:00,
2013-07-05 13:18:00,65.7,57.9,30.01,East,92,5.0,9.0,76,0.00,,,0.00,meteohub,2013-07-05 20:18:00,
2013-07-05 13:23:00,65.1,57.4,30.00,East,82,9.0,9.0,76,0.00,,,0.00,meteohub,2013-07-05 20:23:00,
2013-07-05 13:28:00,64.8,57.4,30.00,East,81,9.0,9.0,77,0.00,,,0.00,meteohub,2013-07-05 20:28:00,
2013-07-05 13:33:00,65.8,58.5,30.00,ENE,77,5.0,11.0,77,0.00,,,0.00,meteohub,2013-07-05 20:33:00,
2013-07-05 13:36:00,66.0,58.3,30.00,ENE,72,4.0,11.0,76,0.00,,,0.00,meteohub,2013-07-05 20:36:00,
2013-07-05 13:41:00,65.1,57.0,30.00,East,93,8.0,11.0,75,0.00,,,0.00,meteohub,2013-07-05 20:41:00,
2013-07-05 13:46:00,65.8,57.7,30.00,East,96,5.0,10.0,75,0.00,,,0.00,meteohub,2013-07-05 20:46:00,
2013-07-05 13:51:00,66.4,57.9,30.00,ESE,113,5.0,10.0,74,0.00,,,0.00,meteohub,2013-07-05 20:51:00,
2013-07-05 13:56:00,65.7,57.2,30.00,ESE,108,6.0,10.0,74,0.00,,,0.00,meteohub,2013-07-05 20:56:00,
2013-07-05 14:01:00,65.5,57.4,30.00,East,94,5.0,10.0,75,0.00,,,0.00,meteohub,2013-07-05 21:01:00,
2013-07-05 14:06:00,65.3,56.8,30.00,ENE,72,8.0,10.0,74,0.00,,,0.00,meteohub,2013-07-05 21:06:00,
2013-07-05 14:11:00,65.1,56.7,30.00,ENE,67,4.0,10.0,74,0.00,,,0.00,meteohub,2013-07-05 21:11:00,
2013-07-05 14:16:00,65.5,57.4,30.00,East,90,7.0,10.0,75,0.00,,,0.00,meteohub,2013-07-05 21:16:00,
2013-07-05 14:17:00,65.5,57.4,30.00,ENE,72,5.0,10.0,75,0.00,,,0.00,meteohub,2013-07-05 21:17:00,
2013-07-05 14:22:00,65.8,57.4,30.00,East,93,6.0,10.0,74,0.00,,,0.00,meteohub,2013-07-05 21:22:00,
2013-07-05 14:27:00,66.0,56.7,30.00,East,89,7.0,10.0,72,0.00,,,0.00,meteohub,2013-07-05 21:27:00,
2013-07-05 14:32:00,66.4,56.7,29.99,East,84,7.0,11.0,71,0.00,,,0.00,meteohub,2013-07-05 21:32:00,
2013-07-05 14:37:00,67.1,58.1,29.99,East,82,3.0,11.0,73,0.00,,,0.00,meteohub,2013-07-05 21:37:00,
2013-07-05 14:42:00,67.3,57.2,29.99,ENE,70,6.0,11.0,70,0.00,,,0.00,meteohub,2013-07-05 21:42:00,
2013-07-05 14:47:00,67.3,57.6,29.99,East,81,5.0,9.0,71,0.00,,,0.00,meteohub,2013-07-05 21:47:00,
2013-07-05 14:52:00,66.9,57.2,29.99,ENE,74,7.0,10.0,71,0.00,,,0.00,meteohub,2013-07-05 21:52:00,
2013-07-05 14:57:00,66.7,57.4,29.99,ENE,69,3.0,10.0,72,0.00,,,0.00,meteohub,2013-07-05 21:57:00,
2013-07-05 15:02:00,67.3,58.3,29.99,ENE,65,8.0,10.0,73,0.00,,,0.00,meteohub,2013-07-05 22:02:00,
2013-07-05 15:07:00,67.6,57.6,29.99,ESE,108,3.0,9.0,70,0.00,,,0.00,meteohub,2013-07-05 22:07:00,
2013-07-05 15:12:00,67.6,57.9,29.99,ESE,103,6.0,9.0,71,0.00,,,0.00,meteohub,2013-07-05 22:12:00,
2013-07-05 15:17:00,68.0,57.4,29.99,ESE,118,5.0,9.0,69,0.00,,,0.00,meteohub,2013-07-05 22:17:00,
2013-07-05 15:21:00,68.2,58.8,29.99,ESE,108,4.0,9.0,72,0.00,,,0.00,meteohub,2013-07-05 22:21:00,
2013-07-05 15:26:00,68.2,58.5,29.99,East,86,5.0,9.0,71,0.00,,,0.00,meteohub,2013-07-05 22:26:00,
2013-07-05 15:31:00,67.8,57.7,29.99,ESE,102,5.0,8.0,70,0.00,,,0.00,meteohub,2013-07-05 22:31:00,
2013-07-05 15:36:00,68.2,58.1,29.98,East,96,4.0,9.0,70,0.00,,,0.00,meteohub,2013-07-05 22:36:00,
2013-07-05 15:41:00,68.2,58.1,29.98,SE,129,2.0,9.0,70,0.00,,,0.00,meteohub,2013-07-05 22:41:00,
2013-07-05 15:46:00,68.2,57.6,29.98,ESE,123,3.0,7.0,69,0.00,,,0.00,meteohub,2013-07-05 22:46:00,
2013-07-05 15:51:00,68.2,57.6,29.98,ENE,75,1.0,6.0,69,0.00,,,0.00,meteohub,2013-07-05 22:51:00,
2013-07-05 15:56:00,68.4,57.4,29.98,East,86,2.0,5.0,68,0.00,,,0.00,meteohub,2013-07-05 22:56:00,
2013-07-05 16:01:00,68.5,58.3,29.98,East,79,0.0,4.0,70,0.00,,,0.00,meteohub,2013-07-05 23:01:00,
2013-07-05 16:06:00,69.1,57.7,29.98,ESE,117,2.0,3.0,67,0.00,,,0.00,meteohub,2013-07-05 23:06:00,
2013-07-05 16:11:00,68.7,57.7,29.98,ESE,103,4.0,4.0,68,0.00,,,0.00,meteohub,2013-07-05 23:11:00,
2013-07-05 16:16:00,68.0,57.4,29.98,East,80,2.0,6.0,69,0.00,,,0.00,meteohub,2013-07-05 23:16:00,
2013-07-05 16:21:00,68.4,57.7,29.97,East,96,3.0,7.0,69,0.00,,,0.00,meteohub,2013-07-05 23:21:00,
2013-07-05 16:22:00,68.4,57.7,29.97,East,95,4.0,7.0,69,0.00,,,0.00,meteohub,2013-07-05 23:22:00,
2013-07-05 16:27:00,67.8,57.7,29.97,ESE,110,3.0,7.0,70,0.00,,,0.00,meteohub,2013-07-05 23:27:00,
2013-07-05 16:29:00,67.6,57.6,29.97,East,93,4.0,7.0,70,0.00,,,0.00,meteohub,2013-07-05 23:29:00,
2013-07-05 16:34:00,67.8,57.7,29.97,ESE,117,2.0,6.0,70,0.00,,,0.00,meteohub,2013-07-05 23:34:00,
2013-07-05 16:40:00,68.5,57.6,29.97,SE,129,3.0,5.0,68,0.00,,,0.00,meteohub,2013-07-05 23:40:00,
2013-07-05 16:45:00,69.1,57.2,29.97,East,87,3.0,5.0,66,0.00,,,0.00,meteohub,2013-07-05 23:45:00,
2013-07-05 16:50:00,69.3,57.4,29.97,ESE,121,2.0,7.0,66,0.00,,,0.00,meteohub,2013-07-05 23:50:00,
2013-07-05 16:55:00,69.4,57.2,29.97,ESE,108,3.0,7.0,65,0.00,,,0.00,meteohub,2013-07-05 23:55:00,
2013-07-05 17:00:00,69.6,57.4,29.97,ESE,120,5.0,6.0,65,0.00,,,0.00,meteohub,2013-07-06 00:00:00,
2013-07-05 17:05:00,69.3,58.3,29.96,ENE,76,4.0,6.0,68,0.00,,,0.00,meteohub,2013-07-06 00:05:00,
2013-07-05 17:10:00,68.5,58.3,29.96,East,83,6.0,6.0,70,0.00,,,0.00,meteohub,2013-07-06 00:10:00,
2013-07-05 17:11:00,68.5,57.9,29.96,East,86,4.0,6.0,69,0.00,,,0.00,meteohub,2013-07-06 00:11:00,
2013-07-05 17:16:00,68.5,58.3,29.96,ENE,77,4.0,7.0,70,0.00,,,0.00,meteohub,2013-07-06 00:16:00,
2013-07-05 17:21:00,69.3,58.3,29.96,NE,56,2.0,7.0,68,0.00,,,0.00,meteohub,2013-07-06 00:21:00,
2013-07-05 17:26:00,69.4,57.9,29.96,East,83,4.0,7.0,67,0.00,,,0.00,meteohub,2013-07-06 00:26:00,
2013-07-05 17:31:00,69.1,57.7,29.96,ESE,112,1.0,6.0,67,0.00,,,0.00,meteohub,2013-07-06 00:31:00,
2013-07-05 17:37:00,69.1,57.7,29.96,ESE,102,1.0,6.0,67,0.00,,,0.00,meteohub,2013-07-06 00:37:00,
2013-07-05 17:42:00,69.3,57.4,29.96,SSE,158,1.0,6.0,66,0.00,,,0.00,meteohub,2013-07-06 00:42:00,
2013-07-05 17:47:00,69.6,57.7,29.96,ENE,69,2.0,3.0,66,0.00,,,0.00,meteohub,2013-07-06 00:47:00,
2013-07-05 17:52:00,69.6,58.1,29.96,ENE,72,3.0,3.0,67,0.00,,,0.00,meteohub,2013-07-06 00:52:00,
2013-07-05 17:57:00,69.6,58.1,29.95,East,96,0.0,4.0,67,0.00,,,0.00,meteohub,2013-07-06 00:57:00,
2013-07-05 18:02:00,69.6,58.1,29.95,ENE,75,0.0,4.0,67,0.00,,,0.00,meteohub,2013-07-06 01:02:00,
2013-07-05 18:07:00,69.4,57.6,29.95,NE,53,0.0,3.0,66,0.00,,,0.00,meteohub,2013-07-06 01:07:00,
2013-07-05 18:08:00,69.3,57.9,29.95,ENE,78,2.0,3.0,67,0.00,,,0.00,meteohub,2013-07-06 01:08:00,
2013-07-05 18:13:00,68.5,57.6,29.95,NE,45,2.0,3.0,68,0.00,,,0.00,meteohub,2013-07-06 01:13:00,
2013-07-05 18:18:00,68.4,57.4,29.95,ENE,63,2.0,3.0,68,0.00,,,0.00,meteohub,2013-07-06 01:18:00,
2013-07-05 18:23:00,68.4,57.7,29.95,ENE,58,2.0,4.0,69,0.00,,,0.00,meteohub,2013-07-06 01:23:00,
2013-07-05 18:28:00,68.5,57.6,29.95,NNE,28,3.0,4.0,68,0.00,,,0.00,meteohub,2013-07-06 01:28:00,
2013-07-05 18:33:00,68.5,57.6,29.95,NNE,22,3.0,4.0,68,0.00,,,0.00,meteohub,2013-07-06 01:33:00,
2013-07-05 18:38:00,69.1,57.7,29.95,NNE,15,2.0,5.0,67,0.00,,,0.00,meteohub,2013-07-06 01:38:00,
2013-07-05 18:43:00,69.3,57.9,29.95,NNE,29,2.0,5.0,67,0.00,,,0.00,meteohub,2013-07-06 01:43:00,
2013-07-05 18:48:00,69.6,57.4,29.95,ENE,65,1.0,4.0,65,0.00,,,0.00,meteohub,2013-07-06 01:48:00,
2013-07-05 18:53:00,69.4,57.2,29.95,ENE,68,2.0,4.0,65,0.00,,,0.00,meteohub,2013-07-06 01:53:00,
2013-07-05 18:58:00,69.3,57.0,29.94,NNE,20,2.0,4.0,65,0.00,,,0.00,meteohub,2013-07-06 01:58:00,
2013-07-05 19:03:00,69.3,57.4,29.95,NE,49,0.0,3.0,66,0.00,,,0.00,meteohub,2013-07-06 02:03:00,
2013-07-05 19:08:00,69.4,57.9,29.95,NE,43,1.0,3.0,67,0.00,,,0.00,meteohub,2013-07-06 02:08:00,
2013-07-05 19:13:00,69.4,57.2,29.95,NE,43,0.0,3.0,65,0.00,,,0.00,meteohub,2013-07-06 02:13:00,
2013-07-05 19:18:00,69.6,58.1,29.95,NE,42,0.0,2.0,67,0.00,,,0.00,meteohub,2013-07-06 02:18:00,
2013-07-05 19:24:00,69.6,57.7,29.95,ENE,70,1.0,1.0,66,0.00,,,0.00,meteohub,2013-07-06 02:24:00,
2013-07-05 19:29:00,69.3,57.9,29.95,ENE,71,0.0,1.0,67,0.00,,,0.00,meteohub,2013-07-06 02:29:00,
2013-07-05 19:34:00,69.1,57.7,29.95,ENE,70,0.0,1.0,67,0.00,,,0.00,meteohub,2013-07-06 02:34:00,
2013-07-05 19:39:00,69.3,58.3,29.95,ENE,71,0.0,1.0,68,0.00,,,0.00,meteohub,2013-07-06 02:39:00,
2013-07-05 19:44:00,69.3,57.4,29.95,ENE,70,0.0,0.0,66,0.00,,,0.00,meteohub,2013-07-06 02:44:00,
2013-07-05 19:49:00,69.1,57.7,29.95,ENE,70,0.0,0.0,67,0.00,,,0.00,meteohub,2013-07-06 02:49:00,
2013-07-05 19:54:00,69.3,57.9,29.95,ENE,71,0.0,0.0,67,0.00,,,0.00,meteohub,2013-07-06 02:54:00,
2013-07-05 19:59:00,69.3,58.3,29.95,ENE,70,0.0,0.0,68,0.00,,,0.00,meteohub,2013-07-06 02:59:00,
2013-07-05 20:01:00,69.3,58.3,29.95,ENE,71,0.0,0.0,68,0.00,,,0.00,meteohub,2013-07-06 03:01:00,
2013-07-05 20:06:00,69.1,58.5,29.95,ENE,71,0.0,0.0,69,0.00,,,0.00,meteohub,2013-07-06 03:06:00,
2013-07-05 20:11:00,68.4,58.6,29.95,ENE,71,0.0,0.0,71,0.00,,,0.00,meteohub,2013-07-06 03:11:00,
2013-07-05 20:16:00,67.8,58.5,29.95,ENE,71,0.0,0.0,72,0.00,,,0.00,meteohub,2013-07-06 03:16:00,
2013-07-05 20:21:00,67.5,58.8,29.95,ENE,70,0.0,0.0,74,0.00,,,0.00,meteohub,2013-07-06 03:21:00,
2013-07-05 20:26:00,67.3,58.6,29.95,ENE,70,0.0,0.0,74,0.00,,,0.00,meteohub,2013-07-06 03:26:00,
2013-07-05 20:31:00,67.3,58.6,29.94,ENE,71,0.0,0.0,74,0.00,,,0.00,meteohub,2013-07-06 03:31:00,
2013-07-05 20:36:00,67.3,58.3,29.95,ENE,70,0.0,0.0,73,0.00,,,0.00,meteohub,2013-07-06 03:36:00,
2013-07-05 20:37:00,67.3,58.3,29.94,ENE,70,0.0,0.0,73,0.00,,,0.00,meteohub,2013-07-06 03:37:00,
2013-07-05 20:42:00,67.5,59.2,29.94,ENE,70,0.0,0.0,75,0.00,,,0.00,meteohub,2013-07-06 03:42:00,
2013-07-05 20:47:00,67.3,59.9,29.95,ENE,70,0.0,1.0,77,0.00,,,0.00,meteohub,2013-07-06 03:47:00,
2013-07-05 20:52:00,66.9,59.5,29.95,NNE,33,0.0,1.0,77,0.00,,,0.00,meteohub,2013-07-06 03:52:00,
2013-07-05 20:57:00,66.7,59.0,29.95,North,349,0.0,1.0,76,0.00,,,0.00,meteohub,2013-07-06 03:57:00,
2013-07-05 21:01:00,66.4,59.4,29.94,NNW,328,0.0,1.0,78,0.00,,,0.00,meteohub,2013-07-06 04:01:00,
2013-07-05 21:02:00,66.4,59.4,29.94,NW,324,1.0,1.0,78,0.00,,,0.00,meteohub,2013-07-06 04:02:00,
2013-07-05 21:03:00,66.4,59.0,29.95,NW,324,0.0,1.0,77,0.00,,,0.00,meteohub,2013-07-06 04:03:00,
2013-07-05 21:04:00,66.4,59.0,29.94,WNW,293,1.0,1.0,77,0.00,,,0.00,meteohub,2013-07-06 04:04:00,
2013-07-05 21:09:00,65.8,58.5,29.95,WNW,290,1.0,1.0,77,0.00,,,0.00,meteohub,2013-07-06 04:09:00,
2013-07-05 21:14:00,65.5,58.5,29.95,WNW,288,0.0,1.0,78,0.00,,,0.00,meteohub,2013-07-06 04:14:00,
2013-07-05 21:19:00,65.1,58.5,29.95,WNW,288,1.0,1.0,79,0.00,,,0.00,meteohub,2013-07-06 04:19:00,
2013-07-05 21:24:00,64.9,58.6,29.95,West,281,0.0,2.0,80,0.00,,,0.00,meteohub,2013-07-06 04:24:00,
2013-07-05 21:29:00,64.6,58.6,29.95,WNW,285,0.0,2.0,81,0.00,,,0.00,meteohub,2013-07-06 04:29:00,
2013-07-05 21:34:00,64.0,58.1,29.95,WNW,285,0.0,2.0,81,0.00,,,0.00,meteohub,2013-07-06 04:34:00,
2013-07-05 21:39:00,63.9,58.3,29.95,WNW,285,0.0,1.0,82,0.00,,,0.00,meteohub,2013-07-06 04:39:00,
2013-07-05 21:44:00,63.7,58.1,29.96,WNW,285,0.0,1.0,82,0.00,,,0.00,meteohub,2013-07-06 04:44:00,
2013-07-05 21:49:00,63.3,58.1,29.96,WNW,285,0.0,1.0,83,0.00,,,0.00,meteohub,2013-07-06 04:49:00,
2013-07-05 21:55:00,63.0,58.1,29.96,WNW,285,0.0,0.0,84,0.00,,,0.00,meteohub,2013-07-06 04:55:00,
2013-07-05 22:00:00,62.6,57.7,29.96,WNW,285,0.0,1.0,84,0.00,,,0.00,meteohub,2013-07-06 05:00:00,
2013-07-05 22:05:00,62.4,57.6,29.96,WNW,285,0.0,1.0,84,0.00,,,0.00,meteohub,2013-07-06 05:05:00,
2013-07-05 22:10:00,62.2,57.7,29.96,WNW,285,0.0,1.0,85,0.00,,,0.00,meteohub,2013-07-06 05:10:00,
2013-07-05 22:15:00,62.1,57.6,29.96,WNW,285,0.0,1.0,85,0.00,,,0.00,meteohub,2013-07-06 05:15:00,
2013-07-05 22:20:00,61.9,57.6,29.96,WNW,285,1.0,1.0,86,0.00,,,0.00,meteohub,2013-07-06 05:20:00,
2013-07-05 22:25:00,61.5,57.4,29.96,WNW,285,0.0,1.0,86,0.00,,,0.00,meteohub,2013-07-06 05:25:00,
2013-07-05 22:30:00,61.3,57.2,29.96,WNW,285,1.0,1.0,86,0.00,,,0.00,meteohub,2013-07-06 05:30:00,
2013-07-05 22:35:00,61.3,57.2,29.96,WNW,285,1.0,1.0,86,0.00,,,0.00,meteohub,2013-07-06 05:35:00,
2013-07-05 22:40:00,61.2,57.0,29.96,WNW,285,1.0,1.0,86,0.00,,,0.00,meteohub,2013-07-06 05:40:00,
2013-07-05 22:45:00,61.2,57.0,29.95,WNW,285,0.0,1.0,86,0.00,,,0.00,meteohub,2013-07-06 05:45:00,
2013-07-05 22:50:00,61.0,56.8,29.96,WNW,285,0.0,1.0,86,0.00,,,0.00,meteohub,2013-07-06 05:50:00,
2013-07-05 22:55:00,60.8,56.8,29.96,WNW,285,0.0,1.0,87,0.00,,,0.00,meteohub,2013-07-06 05:55:00,
2013-07-05 23:00:00,60.6,57.0,29.96,WNW,285,0.0,1.0,88,0.00,,,0.00,meteohub,2013-07-06 06:00:00,
2013-07-05 23:05:00,60.4,56.8,29.96,West,263,0.0,1.0,88,0.00,,,0.00,meteohub,2013-07-06 06:05:00,
2013-07-05 23:10:00,60.3,56.7,29.96,West,264,0.0,0.0,88,0.00,,,0.00,meteohub,2013-07-06 06:10:00,
2013-07-05 23:15:00,60.1,56.5,29.96,West,263,0.0,0.0,88,0.00,,,0.00,meteohub,2013-07-06 06:15:00,
2013-07-05 23:20:00,59.7,56.1,29.96,West,264,0.0,0.0,88,0.00,,,0.00,meteohub,2013-07-06 06:20:00,
2013-07-05 23:25:00,59.5,56.3,29.96,West,263,0.0,0.0,89,0.00,,,0.00,meteohub,2013-07-06 06:25:00,
2013-07-05 23:30:00,59.5,56.7,29.96,West,264,0.0,0.0,90,0.00,,,0.00,meteohub,2013-07-06 06:30:00,
2013-07-05 23:35:00,59.4,56.5,29.96,West,264,0.0,0.0,90,0.00,,,0.00,meteohub,2013-07-06 06:35:00,
2013-07-05 23:40:00,59.2,56.3,29.96,West,266,1.0,0.0,90,0.00,,,0.00,meteohub,2013-07-06 06:40:00,
2013-07-05 23:46:00,59.2,56.5,29.96,NNW,332,0.0,1.0,91,0.00,,,0.00,meteohub,2013-07-06 06:46:00,
2013-07-05 23:51:00,59.0,56.3,29.96,WNW,293,1.0,1.0,91,0.00,,,0.00,meteohub,2013-07-06 06:51:00,
2013-07-05 23:56:00,59.0,56.1,29.96,NE,56,0.0,2.0,90,0.00,,,0.00,meteohub,2013-07-06 06:56:00,